www.pogodaiklimat.ru

Погода и климат >> Архив погоды >> Узбекистан >> Машикудук


ПОГОДА в Машикудуке

  • Прогноз погоды в Машикудуке
  • Монитор погоды в Машикудуке

АРХИВ ПОГОДЫ в Машикудуке

Время (UTC), дата Ветер
(напр.,м/с)
 
Видим.   Явления Облачность Т
(С)
Тd
(С)
f
(%)
Тe
(С)
Тes
(С)
Комфортность P
(гПа)
Po
(гПа)
Тmin
(С)
Tmax
(С)
R
(мм)
R24
(мм)
S
(см)
00 12.06 штиль 0 20 км ясно +15.8 +5.9 52 +16 +16 1014.8 991.2
03 12.06 штиль 0 20 км ясно +22.6 +8.5 40 +24 +31 комфорт 1014.9 991.8
06 12.06 СВ 2 20 км ясно +30.4 +11.5 31 +31 +48 жарко 1014.6 992.1 +15.8
09 12.06 СВ 1 20 км ясно +32.0 +12.3 30 +32 +54 опасность
солнечного
удара
1012.5 990.2
12 12.06 В 3 20 км ясно +33.8 +7.3 19 +32 +37 жарко 1010.5 988.4
21 12.06 штиль 0 20 км ясно +21.2 +9.4 47 +23 +23 комфорт 1011.0 988.0
00 13.06 штиль 0 20 км ясно +18.2 +9.9 58 +18 +18 1010.6 987.3
03 13.06 штиль 0 20 км ясно +24.8 +11.1 42 +26 +34 жарко 1010.3 987.5
06 13.06 В 2 20 км ясно +33.4 +8.9 22 +32 +50 жарко 1008.6 986.5 +18.2
09 13.06 В 4 20 км 3/3 600 м
[Cu med, cong]
+35.0 +10.0 22 +34 +43 очень
жарко
1007.2 985.1
12 13.06 ЮВ 2 20 км 3/3 600 м
[Cu med, cong]
+35.4 +9.7 21 +34 +39 очень
жарко
1005.3 983.4
15 13.06 В 2 20 км ясно +33.0 +10.4 25 +32 +32 жарко 1004.3 982.3 +35.4
18 13.06 В 2 20 км ясно +24.4 +10.2 41 +25 +25 комфорт 1005.0 983.2 +35.4
21 13.06 штиль 0 20 км ясно +22.0 +9.2 44 +23 +23 комфорт 1005.6 982.7
00 14.06 штиль 0 20 км ясно +20.4 +8.4 46 +21 +21 комфорт 1005.7 982.7
03 14.06 штиль 0 20 км ясно +26.0 +10.0 37 +27 +34 жарко 1005.4 982.8
06 14.06 В 2 20 км ясно +34.8 +13.3 27 +35 +53 опасность
солнечного
удара
1004.4 982.5 +20.4
09 14.06 ЮЗ 1 20 км 5/5 600 м
[Cu med, cong]
+37.4 +12.1 22 +37 +48 очень
жарко
1003.2 981.5
12 14.06 З 2 20 км 8/4 600 м
[Cu med, cong Ci fib]
+39.0 +11.0 19 +38 +42 очень
жарко
1002.5 980.9
15 14.06 З 2 20 км 6/0
[Ac As]
+35.0 +15.9 32 +37 +37 очень
душно
1002.2 980.3 +39.0
18 14.06 штиль 0 20 км 8/0
[Ac As]
+31.8 +14.3 35 +34 +34 душно 1002.1 980.0 +39.0
21 14.06 СВ 2 20 км 6/0
[Ac As]
+28.6 +13.7 40 +30 +30 жарко 1002.7 980.3
00 15.06 В 4 20 км 6/0
[Ac As]
+25.2 +12.7 46 +27 +27 жарко 1006.3 983.6
03 15.06 Ю 1 20 км 8/0
[Ac As]
+25.8 +12.5 44 +28 +30 жарко 1006.1 983.4
06 15.06 ЮЗ 4 20 км 3/3 600 м
[Cu med, cong]
+33.6 +13.8 30 +35 +43 душно 1005.3 983.2 +25.2
09 15.06 З 6 20 км ясно +35.0 +14.6 30 +36 +44 очень
жарко
1004.4 982.5
12 15.06 ЮЗ 6 20 км ясно +35.6 +15.5 30 +37 +40 душно 1004.3 982.5
15 15.06 З 3 20 км ясно +33.2 +13.6 31 +34 +34 очень
жарко
1004.6 982.6 +35.6
18 15.06 СЗ 2 20 км ясно +26.8 +10.7 36 +28 +28 жарко 1006.9 984.2 +35.6
21 15.06 СВ 1 20 км ясно +22.4 +9.7 44 +24 +24 комфорт 1007.5 984.5
00 16.06 штиль 0 20 км ясно +17.0 +6.2 49 +17 +17 1008.5 985.1
03 16.06 штиль 0 20 км ясно +24.0 +9.0 38 +25 +32 комфорт 1008.0 985.1
06 16.06 СЗ 1 20 км ясно +30.4 +11.8 32 +31 +52 опасность
солнечного
удара
1008.3 985.9 +17.0
12 16.06 С 3 20 км ясно +32.8 +10.5 25 +32 +38 жарко 1007.5 985.3
15 16.06 С 2 20 км ясно +29.4 +10.2 30 +29 +29 жарко 1007.9 985.5 +33.4
18 16.06 С 2 20 км ясно +24.8 +8.6 36 +25 +25 комфорт 1009.0 986.2 +33.4
21 16.06 С 2 20 км ясно +21.2 +8.0 43 +22 +22 комфорт 1009.8 986.7
00 17.06 С 3 20 км ясно +17.0 +5.6 47 +17 +17 1009.5 986.1
03 17.06 С 4 20 км ясно +25.6 +12.7 45 +27 +31 жарко 1008.5 985.8
09 17.06 СВ 2 20 км ясно +34.4 +12.2 26 +34 +53 опасность
солнечного
удара
1006.6 984.5
15 17.06 штиль 0 20 км ясно +32.8 +12.6 29 +33 +33 жарко 1004.4 982.4 +34.8
18 17.06 С 1 20 км ясно +25.8 +9.2 35 +26 +26 жарко 1005.1 982.5 +34.8
21 17.06 штиль 0 20 км ясно +22.0 +7.6 39 +23 +23 комфорт 1005.5 982.6
00 18.06 СВ 1 20 км ясно +19.6 +6.7 43 +21 +21 комфорт 1005.7 982.6
03 18.06 С 3 20 км ясно +21.8 +7.8 41 +23 +28 комфорт 1006.7 983.7
15 18.06 СВ 1 20 км 4/0
[Ci fib]
+33.4 +10.5 25 +33 +33 жарко 1004.2 982.2 +35.6

 

Местоположение метеостанции Машикудук (Навоийская область, Узбекистан): широта 41.05 долгота 65.28 высота над уровнем моря 200 м.

В архиве по умолчанию представлена погода в Машикудуке за последнюю неделю. Архивные данные за месяц целиком и за предыдущие месяцы, начиная с января 2011 года, Вы можете получить, выбрав интересующий диапазон дат из раскрывающегося списка и нажав кнопку "Ввод!".


*Определитесь, кто Вы:
робот инопланетянин человек

Внимание! Время в таблицах - всемирное. Для получения местного времени необходимо прибавить поправку, которая равна 5 ч.

Смотрите также архив погоды в соседних городах и на ближайших метеорологических станциях:

Погода в Нурате (Навоийская область, Узбекистан) (65 км)
Погода в Айякагитме (Узбекистан) (79 км)
Погода в Тамдыбулаке (Навоийская область, Узбекистан) (94 км)
Погода в Зарафшане (Навоийская область, Узбекистан) (102 км)
Погода в Навои (Навоийская область, Узбекистан) (102 км)
Погода в Бухаре (Бухарская область, Узбекистан) (158 км)
Погода на Каттакурган вдхр (Самаркандская область, Узбекистан) (164 км)
Погода в Джангельды (Бухарская область, Узбекистан) (165 км)
Погода в Учкудуке (Навоийская область, Узбекистан) (176 км)
Погода в Янгикишлаке (Джизакская область, Узбекистан) (176 км)

Пояснения к столбцам:

Ветер - указаны скорость ветра в м/с - средняя за 10 мин, порывы в срок и между сроками (в фигурных скобках) и направление, откуда дует ветер: С - северный, СВ - северо-восточный, В - восточный, ЮВ - юго-восточный, Ю - южный, ЮЗ - юго-западный, З - западный, СЗ - северо-западный.
Видимость - горизонтальная дальность видимости в метрах или километрах. При видимости от 1 до 10 км при отсутствии осадков обычно наблюдается дымка, при ухудшении видимости до 1 км и менее - туман. В сухую погоду видимость может ухудшаться дымом, пылью или мглою.
Явления - указаны атмосферные явления, наблюдавшиеся в срок или в последний час перед сроком; фигурными скобками обозначены явления, наблюдавшиеся между сроками (за 1-3 часа до срока); квадратными скобками обозначены град или гололедные отложения с указанием их диаметра в мм.
Облачность - указаны через наклонную черту общая и нижняя облачность в баллах и высота нижней границы облаков в метрах; квадратными скобками обозначены формы облаков: Ci - перистые, Cs - перисто-слоистые, Cc - перисто-кучевые, Ac - высококучевые, As - высокослоистые, Sc - слоисто-кучевые, Ns - слоисто-дождевые, Cu - кучевые, Cb - кучево-дождевые. Подробнее классификацию облаков см. в Атласе облаков (PDF).
T - Температура воздуха - температура, измеренная на высоте 2 м над землей.
Td - Температура точки росы - температура, при понижении до которой содержащийся в воздухе водяной пар достигнет насыщения.
f - Относительная влажность воздуха - влажноcть воздуха, измеренная на высоте 2 м над землей.
Te - Эффективная температура - температура, которую ощущает одетый по сезону человек в тени. Характеристика душности погоды. При расчете учитывается влияние влажности воздуха и скорости ветра на теплоощущения человека.
Tes - Эффективная температура на солнце - температура, которую ощущает человек, с поправкой на солнечный нагрев. Характеристика знойности погоды. Зависит от высоты солнца над горизонтом, облачности и скорости ветра. Ночью, в пасмурную погоду, а также при ветре 12 м/с и более поправка равна нулю.
P - Атмосферное давление - приведенное к уровню моря атмосферное давление.
Po - Атмосферное давление - измеренное на уровне метеостанции атмосферное давление.
Tmin - Минимальная температура - минимум температуры воздуха на высоте 2 м над землей.
Tmax - Максимальная температура - максимум температуры воздуха на высоте 2 м над землей.
R - Количество осадков - Количество выпавших осадков за период времени, мм. При наведении курсора мыши на число - период времени, за который выпало указанное количество осадков.
R24 - Количество осадков - Количество выпавших осадков за 24 часа, мм.
S - Снежный покров - Высота снежного покрова, см. При наведении курсора мыши на число - состояние снежного покрова и степень покрытия местности в баллах.